Location: Washington
(38.8950°N, 77.0370°W)
Time: 06:35:28
(UTC-04:00)

Daily predictions for brighter satellites

Satellite Brightness Start Highest point End
(mag) Time Altitude Azimuth Time Altitude Azimuth Time Altitude Azimuth
Cosmos 1933 Rocket 3.7 20:45:34 10° S 20:49:54 84° W 20:54:16 10° N
Cosmos 1933 3.6 20:48:53 10° N 20:52:53 74° W 20:56:53 10° S
Cosmos 1939 Rocket 3.4 20:49:38 10° SE 20:53:34 43° ENE 20:57:29 10° N
Cosmos 1862 Rocket 3.7 20:50:46 10° N 20:55:17 84° W 20:59:45 10° S
Spot 2 Rocket 3.7 20:51:17 10° S 20:56:23 81° WSW 21:01:32 10° NNW
Cosmos 1408 4.3 20:54:55 10° SE 20:57:20 17° E 20:59:45 10° NE
USA 215 4.5 20:52:45 10° E 20:58:23 32° NNE 21:04:02 10° NNW
ISS -3.3 20:56:31 10° WSW 20:59:43 63° NW 21:02:57 10° NE
Resurs 01 Rocket 2.4 20:59:16 10° S 21:03:35 54° W 21:07:57 10° NNW
NOSS 3-2 (C) 4.1 20:59:54 10° SW 21:05:49 64° NW 21:12:21 10° NNE
Tiangong 2 1.3 21:02:56 10° WNW 21:06:06 61° SSW 21:09:02 12° SE
Cosmos 2082 Rocket 4.2 21:02:09 10° NW 21:06:51 27° WSW 21:11:32 10° SSW
Cosmos 1900 4.5 21:01:51 10° NNW 21:07:03 81° ENE 21:12:11 10° SSE
Meteor 2-3 Rocket 3.8 21:04:52 10° S 21:10:35 85° E 21:16:17 10° N
CZ-4B DEB 3.6 21:09:37 12° SE 21:11:57 29° ENE 21:14:33 10° N
Cosmos 2346 Rocket 4.4 21:07:48 10° S 21:13:50 83° E 21:19:56 10° N
Cosmos 1825 3.3 21:11:00 10° SSE 21:14:07 25° E 21:17:15 10° NE
Meteor 1-26 Rocket 4.4 21:09:33 10° NNW 21:15:13 79° W 21:20:59 10° S
Okean 1-7 3.7 21:11:28 10° N 21:15:35 38° ENE 21:19:23 12° SE
CENTAUR R/B 2.5 21:10:57 10° SSW 21:16:40 55° ESE 21:23:09 10° NE
Cosmos 2344 4.0 21:13:28 10° S 21:20:26 39° ESE 21:27:44 10° NE
SPOT 5 4.5 21:17:37 12° ESE 21:21:18 23° ENE 21:25:23 10° NNE
Cosmos 1782 3.6 21:17:40 10° NNE 21:21:20 34° ENE 21:24:10 15° SE
Shenzhou-11 Module 3.1 21:19:24 10° W 21:22:12 33° SSW 21:24:15 15° SSE
Aureole 1 4.5 21:20:26 10° SSW 21:23:25 73° WNW 21:26:52 10° NNE
Envisat 3.4 21:18:27 10° S 21:23:28 65° WSW 21:28:32 10° NNW
Cosmos 372 Rocket 4.3 21:19:14 10° S 21:24:01 42° ESE 21:28:49 10° NNE
SL-19 R/B 4.5 21:19:55 10° SSE 21:25:39 86° WSW 21:31:51 10° NNW
H-2A ROCKET BODY 3.2 21:27:20 10° SW 21:29:43 19° SSE 21:32:05 15° SE
Cosmos 1703 Rocket 3.5 21:28:11 10° N 21:32:37 88° WSW 21:36:58 10° S
DNEPR-1 R/B 3.8 21:27:38 10° SSW 21:33:02 71° ESE 21:37:36 10° NE
Cosmos 1943 Rocket 2.2 21:27:40 10° S 21:33:08 59° ESE 21:38:37 10° NNE
Cosmos 1892 4.3 21:30:09 10° SSW 21:33:45 37° W 21:37:20 10° N
Cosmos 1125 Rocket 3.4 21:33:54 10° S 21:39:07 73° ESE 21:44:21 10° NNE
Cosmos 1862 4.2 21:38:56 21° SE 21:40:44 30° E 21:44:14 10° NNE
Cosmos 1733 Rocket 4.1 21:40:35 21° ESE 21:42:06 26° E 21:45:40 10° NNE
Helios 1B rocket 2.7 21:39:10 10° N 21:43:16 69° WNW 21:47:20 10° SSW
Cosmos 2084 3.6 21:43:48 10° NW 21:47:35 58° WSW 21:50:04 21° SSE
NOAA 11 4.2 21:44:20 16° SSE 21:48:41 72° ENE 21:54:10 10° N
Cosmos 2263 4.3 21:43:00 10° SSW 21:48:47 82° WNW 21:54:33 10° NNE
Cosmos 1869 Rocket 3.9 21:45:38 10° SSW 21:49:55 64° W 21:54:16 10° N
Cosmos 1340 3.0 21:46:21 10° N 21:50:01 46° ENE 21:51:33 29° SE
Lacrosse 4 Rocket 2.1 21:48:12 10° NNW 21:52:31 44° ENE 21:54:34 26° ESE
SAR-Lupe-4 3.7 21:52:14 20° S 21:54:35 72° WSW 21:58:10 10° NNW
Cosmos 2369 Rocket 3.3 21:53:14 10° SW 21:58:40 48° WNW 22:04:11 10° NNE
SL-08 RB Rocket 4.1 22:00:57 29° SE 22:03:00 49° ENE 22:07:30 10° N
YAOGAN 6 4.2 22:00:39 10° SSW 22:04:01 33° W 22:07:24 10° NNW
Cosmos 158 Rocket 3.8 22:02:43 10° NNW 22:07:37 85° WSW 22:10:13 28° SSE
Cosmos 1606 3.0 22:04:26 10° NNW 22:08:10 64° W 22:10:13 25° S
Cosmos 1833 4.3 22:03:10 10° NNW 22:08:55 64° ENE 22:11:43 30° SE
H-2A R/B 2.4 22:11:04 30° SE 22:13:27 53° ENE 22:18:36 10° N
MetOp-B 4.2 22:14:45 24° S 22:18:03 78° WSW 22:23:26 10° NNW
GPS 2-04 Rocket1 3.3 22:15:33 10° W 22:18:45 35° SSW 22:18:45 35° SSW
ATLAS 5 CENTAUR R/B 2.4 22:13:31 10° NNW 22:19:37 90° NE 22:22:52 32° SSE
Lacrosse 5 rocket 3.9 22:17:18 10° W 22:20:01 20° NW 22:22:48 10° NNE
Cosmos 1674 Rocket 3.9 22:16:23 10° N 22:20:32 44° E 22:21:11 41° ESE
Landsat 7 4.4 22:21:54 35° ESE 22:23:02 40° ENE 22:27:28 10° N
ERS-1 Rocket 3.7 22:23:37 19° SSW 22:26:57 49° W 22:31:50 10° NNW
OAO 3 Copernicus 4.4 22:24:41 10° WSW 22:29:36 54° S 22:30:28 47° SE
Cosmos 1656 Rocket 3.5 22:25:33 18° SSW 22:29:42 77° ESE 22:35:14 10° NNE
BREEZE-M DEB (TANK) 3.9 22:27:38 10° NW 22:31:19 61° NE 22:40:24 20° ESE
ARGOS 3.3 22:28:52 29° S 22:31:38 71° WSW 22:37:00 10° NNW
H-2A R/B 3.7 22:33:43 20° ENE 22:33:43 20° ENE 22:36:38 10° NNE
Nadezhda 4 Rocket 3.9 22:30:13 24° S 22:34:12 87° E 22:40:23 10° N
Cosmos 1092 Rocket 4.0 22:31:56 36° SSE 22:34:22 61° E 22:40:24 10° NNE
Meteor 1-27 Rocket 3.8 22:28:56 10° NNW 22:34:40 75° W 22:37:24 32° S
Okean 3 4.1 22:31:46 10° N 22:35:35 38° ENE 22:35:35 38° ENE
IGS 5A 4.4 22:36:30 33° ENE 22:36:30 33° ENE 22:40:15 10° N
ISS -0.6 22:34:55 10° NW 22:36:43 14° NNW 22:38:31 10° NNE
Terra 2.4 22:37:35 38° E 22:38:11 40° ENE 22:42:37 10° N
USA 215 3.2 22:37:58 37° SE 22:40:53 89° SW 22:47:29 10° NW
YAOGAN 11 4.4 22:40:30 42° SSW 22:41:52 65° WSW 22:46:22 10° NNW
Cosmos 1908 Rocket 3.4 22:55:35 76° E 22:55:35 76° E 23:00:02 10° N
Cosmos 1437 4.0 22:54:02 10° N 22:56:09 38° N 22:56:09 38° N
Intercosmos 25 Rocket 4.2 22:51:32 10° NNW 22:58:15 66° W 22:59:26 48° SSW
SPOT 5 3.9 22:56:52 30° SSW 22:59:01 45° W 23:04:06 10° NNW
Meteor 1-25 Rocket 4.5 22:59:06 48° ESE 22:59:28 49° E 23:05:04 10° NNE
Milstar 3 3.5 22:55:42 10° WSW 23:05:03 40° S 23:05:33 40° S
Cosmos 2251 Rocket 3.3 23:01:56 10° NNW 23:07:11 85° ENE 23:07:41 73° SE
Okean 2 Rocket 4.3 23:08:46 30° NE 23:08:46 30° NE 23:11:32 10° NNE
CENTAUR R/B 4.4 23:02:21 10° WSW 23:07:43 30° NW 23:13:42 10° NNE
Cosmos 2227 Rocket 3.6 23:04:19 10° N 23:08:59 26° ENE 23:10:00 24° ENE
DMSP B5D2-2 4.3 23:04:16 10° N 23:09:27 68° WNW 23:11:06 43° SW
SPOT 1/Viking Rocket 4.3 23:10:32 37° SW 23:11:53 45° W 23:16:53 10° NNW
Cosmos 2219 3.1 23:10:46 10° NNW 23:16:34 83° ENE 23:17:13 71° SE
Spot 4 4.3 23:17:07 48° ENE 23:17:07 48° ENE 23:21:30 10° N
Meteor 1-14 Rocket 4.2 23:17:48 60° SSW 23:18:58 86° W 23:24:49 10° N
deb Chang Zheng 4 4.3 23:16:33 10° NNE 23:19:47 45° NE 23:19:47 45° NE
CZ-4 R/B 4.2 23:16:47 10° NNE 23:20:28 51° NE 23:20:28 51° NE
Cosmos 1812 3.8 23:17:52 10° N 23:20:33 42° N 23:20:33 42° N
Cosmos 1782 Rocket 4.0 23:23:54 59° N 23:23:54 59° N 23:27:30 10° N
Cosmos 2195 Rocket 4.5 23:21:49 52° SSW 23:23:29 81° W 23:29:51 10° N
SME Rocket 4.3 23:22:43 56° SE 23:24:22 80° ENE 23:33:50 10° NNW
GEOS 3 Rocket 3.4 23:30:20 88° ESE 23:30:23 89° NE 23:35:38 10° NW
Lacrosse 4 Rocket 3.7 23:27:58 10° WNW 23:30:50 17° WSW 23:30:55 17° WSW
ATLAS CENTAUR R/B 2.7 23:39:00 36° NW 23:39:00 36° NW 23:42:23 10° NNE
Gbstr 26 Del rocket 4.4 23:36:01 10° NW 23:39:33 30° NNE 23:39:33 30° NNE
Cosmos 1655 Rocket 3.8 23:42:10 72° SSW 23:42:51 85° W 23:49:07 10° N
Cosmos 405 Rocket 4.4 23:39:53 10° NNW 23:41:56 31° NNW 23:41:56 31° NNW
Cosmos 1975 Rocket 3.8 23:41:52 10° NNW 23:45:23 51° NW 23:45:23 51° NW
ALOS 2 4.5 23:53:43 23° NE 23:53:43 23° NE 23:56:09 10° NNE
Cosmos 2026 Rocket 4.5 23:51:36 45° WSW 23:52:58 53° W 23:59:05 10° N
H-2A R/B 4.1 23:51:42 17° WSW 23:53:05 19° W 23:56:47 10° NW
Meteor 1-18 Rocket 4.4 23:47:42 10° NNW 23:53:23 65° W 23:53:31 64° WSW
